Time,TemperatureF,DewpointF,PressureIn,WindDirection,WindDirectionDegrees,WindSpeedMPH,WindSpeedGustMPH,Humidity,HourlyPrecipIn,Conditions,Clouds,dailyrainin,SoftwareType,DateUTC
2013-02-08 00:00:00,24.7,23.0,29.26,NNE,22,3.0,7.0,87,0.00,,,0.00,Rainwise IP-100,2013-02-08 06:00:00,
2013-02-08 00:05:00,24.7,23.0,29.26,NNE,22,4.9,7.2,87,0.00,,,0.00,Rainwise IP-100,2013-02-08 06:05:00,
2013-02-08 00:10:00,24.6,23.0,29.26,NNE,22,3.5,7.5,87,0.00,,,0.00,Rainwise IP-100,2013-02-08 06:10:00,
2013-02-08 00:15:00,24.6,23.0,29.27,NNE,22,3.5,7.2,87,0.00,,,0.00,Rainwise IP-100,2013-02-08 06:15:00,
2013-02-08 00:20:00,24.6,23.0,29.27,North,360,4.9,5.8,87,0.00,,,0.00,Rainwise IP-100,2013-02-08 06:20:00,
2013-02-08 00:25:00,24.6,23.0,29.27,North,360,3.7,7.0,87,0.00,,,0.00,Rainwise IP-100,2013-02-08 06:25:00,
2013-02-08 00:30:00,24.6,23.0,29.28,NNW,337,2.6,5.6,87,0.00,,,0.00,Rainwise IP-100,2013-02-08 06:30:00,
2013-02-08 00:32:00,24.6,23.0,29.28,NNW,337,3.0,5.6,87,0.00,,,0.00,Rainwise IP-100,2013-02-08 06:32:00,
2013-02-08 00:33:00,24.5,23.0,29.28,NW,315,7.5,7.5,87,0.00,,,0.00,Rainwise IP-100,2013-02-08 06:33:00,
2013-02-08 00:38:00,24.5,23.0,29.29,NW,315,4.0,7.5,87,0.00,,,0.00,Rainwise IP-100,2013-02-08 06:38:00,
2013-02-08 00:43:00,24.5,23.0,29.29,NW,315,4.0,7.7,87,0.00,,,0.00,Rainwise IP-100,2013-02-08 06:43:00,
2013-02-08 00:48:00,24.5,23.0,29.29,NW,315,5.1,7.0,87,0.00,,,0.00,Rainwise IP-100,2013-02-08 06:48:00,
2013-02-08 00:53:00,24.4,21.0,29.29,NNW,337,4.7,7.7,87,0.00,,,0.00,Rainwise IP-100,2013-02-08 06:53:00,
2013-02-08 00:58:00,24.3,21.0,29.29,NNW,337,3.3,6.5,87,0.00,,,0.00,Rainwise IP-100,2013-02-08 06:58:00,
2013-02-08 01:03:00,24.2,21.0,29.29,NW,315,3.0,6.5,88,0.00,,,0.00,Rainwise IP-100,2013-02-08 07:03:00,
2013-02-08 01:08:00,24.2,21.0,29.29,North,360,4.7,6.8,88,0.00,,,0.00,Rainwise IP-100,2013-02-08 07:08:00,
2013-02-08 01:13:00,24.1,21.0,29.29,North,360,2.8,6.5,88,0.00,,,0.00,Rainwise IP-100,2013-02-08 07:13:00,
2013-02-08 01:18:00,24.1,21.0,29.29,NNW,337,3.5,7.7,88,0.00,,,0.00,Rainwise IP-100,2013-02-08 07:18:00,
2013-02-08 01:23:00,24.1,21.0,29.29,North,360,5.8,8.6,88,0.00,,,0.00,Rainwise IP-100,2013-02-08 07:23:00,
2013-02-08 01:28:00,24.0,21.0,29.29,North,360,4.7,7.7,88,0.00,,,0.00,Rainwise IP-100,2013-02-08 07:28:00,
2013-02-08 01:33:00,24.0,21.0,29.30,North,360,6.3,7.5,88,0.00,,,0.00,Rainwise IP-100,2013-02-08 07:33:00,
2013-02-08 01:38:00,24.0,21.0,29.30,NNE,22,5.4,7.9,88,0.00,,,0.00,Rainwise IP-100,2013-02-08 07:38:00,
2013-02-08 01:43:00,24.0,21.0,29.30,NNW,337,4.9,9.8,88,0.00,,,0.00,Rainwise IP-100,2013-02-08 07:43:00,
2013-02-08 01:48:00,23.9,21.0,29.30,NNW,337,3.3,7.5,88,0.00,,,0.00,Rainwise IP-100,2013-02-08 07:48:00,
2013-02-08 01:53:00,23.9,21.0,29.31,North,360,4.7,8.2,88,0.00,,,0.00,Rainwise IP-100,2013-02-08 07:53:00,
2013-02-08 01:58:00,23.9,23.0,29.31,North,360,2.6,6.3,89,0.00,,,0.00,Rainwise IP-100,2013-02-08 07:58:00,
2013-02-08 02:03:00,23.9,23.0,29.31,NNE,22,4.9,5.8,89,0.00,,,0.00,Rainwise IP-100,2013-02-08 08:03:00,
2013-02-08 02:08:00,23.8,23.0,29.30,North,360,3.0,6.1,89,0.00,,,0.00,Rainwise IP-100,2013-02-08 08:08:00,
2013-02-08 02:13:00,23.8,23.0,29.30,North,360,3.0,6.1,89,0.00,,,0.00,Rainwise IP-100,2013-02-08 08:13:00,
2013-02-08 02:18:00,23.8,23.0,29.30,NNE,22,3.0,5.1,89,0.00,,,0.00,Rainwise IP-100,2013-02-08 08:18:00,
2013-02-08 02:23:00,23.8,23.0,29.30,NNE,22,3.3,5.1,89,0.00,,,0.00,Rainwise IP-100,2013-02-08 08:23:00,
2013-02-08 02:28:00,23.7,23.0,29.31,NNE,22,4.9,5.4,89,0.00,,,0.00,Rainwise IP-100,2013-02-08 08:28:00,
2013-02-08 02:33:00,23.7,23.0,29.30,North,360,4.2,5.1,89,0.00,,,0.00,Rainwise IP-100,2013-02-08 08:33:00,
2013-02-08 02:38:00,23.7,23.0,29.31,North,360,4.0,6.1,89,0.00,,,0.00,Rainwise IP-100,2013-02-08 08:38:00,
2013-02-08 02:43:00,23.6,23.0,29.30,North,360,0.0,5.1,89,0.00,,,0.00,Rainwise IP-100,2013-02-08 08:43:00,
2013-02-08 02:48:00,23.6,23.0,29.30,NNE,22,2.3,4.9,89,0.00,,,0.00,Rainwise IP-100,2013-02-08 08:48:00,
2013-02-08 02:53:00,23.5,23.0,29.30,North,360,3.7,4.4,89,0.00,,,0.00,Rainwise IP-100,2013-02-08 08:53:00,
2013-02-08 02:58:00,23.6,23.0,29.30,NNE,22,5.1,6.8,89,0.00,,,0.00,Rainwise IP-100,2013-02-08 08:58:00,
2013-02-08 03:03:00,23.5,23.0,29.29,NNE,22,3.5,6.3,89,0.00,,,0.00,Rainwise IP-100,2013-02-08 09:03:00,
2013-02-08 03:08:00,23.5,23.0,29.29,NNE,22,4.4,5.6,89,0.00,,,0.00,Rainwise IP-100,2013-02-08 09:08:00,
2013-02-08 03:13:00,23.5,23.0,29.29,NNE,22,3.3,4.9,89,0.00,,,0.00,Rainwise IP-100,2013-02-08 09:13:00,
2013-02-08 03:18:00,23.5,21.0,29.30,NNE,22,5.6,8.6,88,0.00,,,0.00,Rainwise IP-100,2013-02-08 09:18:00,
2013-02-08 03:23:00,23.4,21.0,29.29,NE,45,4.4,8.2,88,0.00,,,0.00,Rainwise IP-100,2013-02-08 09:23:00,
2013-02-08 03:28:00,23.3,18.0,29.29,NE,45,6.3,8.2,86,0.00,,,0.00,Rainwise IP-100,2013-02-08 09:28:00,
2013-02-08 03:33:00,23.1,18.0,29.29,NE,45,6.1,8.6,84,0.00,,,0.00,Rainwise IP-100,2013-02-08 09:33:00,
2013-02-08 03:38:00,22.9,18.0,29.29,NE,45,3.7,6.1,83,0.00,,,0.00,Rainwise IP-100,2013-02-08 09:38:00,
2013-02-08 03:43:00,22.7,18.0,29.31,North,360,3.5,4.4,82,0.00,,,0.00,Rainwise IP-100,2013-02-08 09:43:00,
2013-02-08 03:48:00,22.4,18.0,29.30,NE,45,5.8,6.5,82,0.00,,,0.00,Rainwise IP-100,2013-02-08 09:48:00,
2013-02-08 03:53:00,22.2,18.0,29.31,NE,45,5.1,6.8,81,0.00,,,0.00,Rainwise IP-100,2013-02-08 09:53:00,
2013-02-08 03:58:00,22.1,18.0,29.31,NE,45,3.3,6.3,80,0.00,,,0.00,Rainwise IP-100,2013-02-08 09:58:00,
2013-02-08 04:03:00,21.8,18.0,29.30,NE,45,3.7,4.7,80,0.00,,,0.00,Rainwise IP-100,2013-02-08 10:03:00,
2013-02-08 04:08:00,21.6,18.0,29.30,NE,45,4.9,5.4,81,0.00,,,0.00,Rainwise IP-100,2013-02-08 10:08:00,
2013-02-08 04:13:00,21.5,18.0,29.30,NE,45,4.4,6.3,81,0.00,,,0.00,Rainwise IP-100,2013-02-08 10:13:00,
2013-02-08 04:18:00,21.1,16.0,29.30,NE,45,4.7,4.9,81,0.00,,,0.00,Rainwise IP-100,2013-02-08 10:18:00,
2013-02-08 04:23:00,20.9,16.0,29.30,NE,45,4.2,5.6,81,0.00,,,0.00,Rainwise IP-100,2013-02-08 10:23:00,
2013-02-08 04:28:00,20.8,16.0,29.30,NE,45,3.5,5.8,81,0.00,,,0.00,Rainwise IP-100,2013-02-08 10:28:00,
2013-02-08 04:33:00,20.7,16.0,29.31,NE,45,3.3,4.9,81,0.00,,,0.00,Rainwise IP-100,2013-02-08 10:33:00,
2013-02-08 04:38:00,20.7,16.0,29.31,NE,45,2.6,4.0,81,0.00,,,0.00,Rainwise IP-100,2013-02-08 10:38:00,
2013-02-08 04:43:00,20.5,16.0,29.32,NE,45,2.3,3.0,81,0.00,,,0.00,Rainwise IP-100,2013-02-08 10:43:00,
2013-02-08 04:48:00,20.1,16.0,29.32,NNE,22,0.0,2.8,81,0.00,,,0.00,Rainwise IP-100,2013-02-08 10:48:00,
2013-02-08 04:53:00,19.6,16.0,29.32,North,360,2.1,2.6,81,0.00,,,0.00,Rainwise IP-100,2013-02-08 10:53:00,
2013-02-08 04:58:00,19.2,16.0,29.32,North,360,3.5,4.2,82,0.00,,,0.00,Rainwise IP-100,2013-02-08 10:58:00,
2013-02-08 05:03:00,19.0,16.0,29.32,NNE,22,2.8,4.7,83,0.00,,,0.00,Rainwise IP-100,2013-02-08 11:03:00,
2013-02-08 05:08:00,18.8,16.0,29.33,North,360,3.5,4.9,84,0.00,,,0.00,Rainwise IP-100,2013-02-08 11:08:00,
2013-02-08 05:13:00,18.6,16.0,29.33,North,360,3.7,4.4,84,0.00,,,0.00,Rainwise IP-100,2013-02-08 11:13:00,
2013-02-08 05:18:00,18.4,14.0,29.33,North,360,3.7,5.4,84,0.00,,,0.00,Rainwise IP-100,2013-02-08 11:18:00,
2013-02-08 05:23:00,18.3,16.0,29.33,NNE,22,3.7,4.7,85,0.00,,,0.00,Rainwise IP-100,2013-02-08 11:23:00,
2013-02-08 05:28:00,18.1,16.0,29.32,NNE,22,3.5,4.2,85,0.00,,,0.00,Rainwise IP-100,2013-02-08 11:28:00,
2013-02-08 05:33:00,18.1,16.0,29.33,NNE,22,3.3,4.0,85,0.00,,,0.00,Rainwise IP-100,2013-02-08 11:33:00,
2013-02-08 05:38:00,18.1,16.0,29.33,NNE,22,2.6,4.2,85,0.00,,,0.00,Rainwise IP-100,2013-02-08 11:38:00,
2013-02-08 05:43:00,18.2,16.0,29.33,NNE,22,3.7,3.7,86,0.00,,,0.00,Rainwise IP-100,2013-02-08 11:43:00,
2013-02-08 05:48:00,18.2,16.0,29.33,NNE,22,4.4,4.4,86,0.00,,,0.00,Rainwise IP-100,2013-02-08 11:48:00,
2013-02-08 05:53:00,17.5,16.0,29.33,NNW,337,0.0,4.7,85,0.00,,,0.00,Rainwise IP-100,2013-02-08 11:53:00,
2013-02-08 05:58:00,16.7,16.0,29.33,NNW,337,0.0,1.9,85,0.00,,,0.00,Rainwise IP-100,2013-02-08 11:58:00,
2013-02-08 06:03:00,16.6,16.0,29.33,WSW,247,2.6,2.6,86,0.00,,,0.00,Rainwise IP-100,2013-02-08 12:03:00,
2013-02-08 06:08:00,16.5,16.0,29.33,West,270,1.4,2.8,87,0.00,,,0.00,Rainwise IP-100,2013-02-08 12:08:00,
2013-02-08 06:13:00,16.4,14.0,29.34,WNW,292,1.9,2.8,88,0.00,,,0.00,Rainwise IP-100,2013-02-08 12:13:00,
2013-02-08 06:18:00,16.0,14.0,29.34,WNW,292,1.4,2.8,88,0.00,,,0.00,Rainwise IP-100,2013-02-08 12:18:00,
2013-02-08 06:23:00,15.7,14.0,29.34,West,270,1.4,2.6,88,0.00,,,0.00,Rainwise IP-100,2013-02-08 12:23:00,
2013-02-08 06:28:00,15.8,14.0,29.34,West,270,1.2,2.6,89,0.00,,,0.00,Rainwise IP-100,2013-02-08 12:28:00,
2013-02-08 06:33:00,16.0,14.0,29.34,North,360,0.0,3.0,89,0.00,,,0.00,Rainwise IP-100,2013-02-08 12:33:00,
2013-02-08 06:38:00,16.2,14.0,29.34,North,360,1.4,3.0,90,0.00,,,0.00,Rainwise IP-100,2013-02-08 12:38:00,
2013-02-08 06:43:00,16.2,14.0,29.35,WNW,292,2.1,2.3,90,0.00,,,0.00,Rainwise IP-100,2013-02-08 12:43:00,
2013-02-08 06:48:00,15.9,14.0,29.34,West,270,1.4,3.0,89,0.00,,,0.00,Rainwise IP-100,2013-02-08 12:48:00,
2013-02-08 06:53:00,15.6,14.0,29.35,West,270,0.0,1.9,89,0.00,,,0.00,Rainwise IP-100,2013-02-08 12:53:00,
2013-02-08 06:58:00,15.7,14.0,29.34,NNE,22,3.3,3.3,89,0.00,,,0.00,Rainwise IP-100,2013-02-08 12:58:00,
2013-02-08 07:03:00,16.2,14.0,29.34,NE,45,4.9,4.9,90,0.00,,,0.00,Rainwise IP-100,2013-02-08 13:03:00,
2013-02-08 07:08:00,16.9,16.0,29.34,NE,45,4.4,5.6,90,0.00,,,0.00,Rainwise IP-100,2013-02-08 13:08:00,
2013-02-08 07:13:00,17.1,16.0,29.34,NE,45,3.0,4.7,89,0.00,,,0.00,Rainwise IP-100,2013-02-08 13:13:00,
2013-02-08 07:18:00,17.0,16.0,29.34,ENE,67,2.3,4.4,89,0.00,,,0.00,Rainwise IP-100,2013-02-08 13:18:00,
2013-02-08 07:23:00,16.9,16.0,29.35,ENE,67,1.4,2.8,89,0.00,,,0.00,Rainwise IP-100,2013-02-08 13:23:00,
2013-02-08 07:28:00,17.1,16.0,29.35,NE,45,1.9,2.8,89,0.00,,,0.00,Rainwise IP-100,2013-02-08 13:28:00,
2013-02-08 07:33:00,17.3,16.0,29.34,NE,45,2.3,2.8,89,0.00,,,0.00,Rainwise IP-100,2013-02-08 13:33:00,
2013-02-08 07:38:00,17.4,16.0,29.35,ENE,67,2.1,3.5,89,0.00,,,0.00,Rainwise IP-100,2013-02-08 13:38:00,
2013-02-08 07:43:00,17.5,16.0,29.35,ENE,67,1.6,3.5,89,0.00,,,0.00,Rainwise IP-100,2013-02-08 13:43:00,
2013-02-08 07:48:00,17.6,16.0,29.35,ENE,67,4.9,5.6,89,0.00,,,0.00,Rainwise IP-100,2013-02-08 13:48:00,
2013-02-08 07:53:00,17.8,16.0,29.35,East,90,3.5,5.8,89,0.00,,,0.00,Rainwise IP-100,2013-02-08 13:53:00,
2013-02-08 07:58:00,17.9,16.0,29.35,ENE,67,6.5,6.5,89,0.00,,,0.00,Rainwise IP-100,2013-02-08 13:58:00,
2013-02-08 08:03:00,18.0,16.0,29.34,ENE,67,7.0,9.8,89,0.00,,,0.00,Rainwise IP-100,2013-02-08 14:03:00,
2013-02-08 08:08:00,18.0,16.0,29.34,ENE,67,7.9,9.6,89,0.00,,,0.00,Rainwise IP-100,2013-02-08 14:08:00,
2013-02-08 08:13:00,18.1,16.0,29.34,ENE,67,5.6,10.0,89,0.00,,,0.00,Rainwise IP-100,2013-02-08 14:13:00,
2013-02-08 08:18:00,18.1,16.0,29.34,ENE,67,6.5,8.6,89,0.00,,,0.00,Rainwise IP-100,2013-02-08 14:18:00,
2013-02-08 08:23:00,18.1,16.0,29.35,ENE,67,5.1,8.2,89,0.00,,,0.00,Rainwise IP-100,2013-02-08 14:23:00,
2013-02-08 08:28:00,18.2,16.0,29.35,East,90,6.5,7.7,89,0.00,,,0.00,Rainwise IP-100,2013-02-08 14:28:00,
2013-02-08 08:33:00,18.3,16.0,29.36,East,90,5.1,7.2,89,0.00,,,0.00,Rainwise IP-100,2013-02-08 14:33:00,
2013-02-08 08:38:00,18.3,16.0,29.35,ENE,67,4.2,6.5,88,0.00,,,0.00,Rainwise IP-100,2013-02-08 14:38:00,
2013-02-08 08:43:00,18.4,16.0,29.36,ENE,67,4.7,5.6,88,0.00,,,0.00,Rainwise IP-100,2013-02-08 14:43:00,
2013-02-08 08:48:00,18.4,16.0,29.36,ENE,67,4.0,5.4,89,0.00,,,0.00,Rainwise IP-100,2013-02-08 14:48:00,
2013-02-08 08:53:00,18.5,18.0,29.36,East,90,2.1,5.1,89,0.00,,,0.00,Rainwise IP-100,2013-02-08 14:53:00,
2013-02-08 08:58:00,18.7,18.0,29.36,East,90,2.6,4.2,88,0.00,,,0.00,Rainwise IP-100,2013-02-08 14:58:00,
2013-02-08 09:03:00,18.9,18.0,29.36,East,90,3.3,3.5,88,0.00,,,0.00,Rainwise IP-100,2013-02-08 15:03:00,
2013-02-08 09:08:00,19.1,18.0,29.37,East,90,2.6,3.7,88,0.00,,,0.00,Rainwise IP-100,2013-02-08 15:08:00,
2013-02-08 09:13:00,19.2,18.0,29.37,East,90,2.1,3.0,88,0.00,,,0.00,Rainwise IP-100,2013-02-08 15:13:00,
2013-02-08 09:18:00,19.5,18.0,29.37,NE,45,4.0,4.2,88,0.00,,,0.00,Rainwise IP-100,2013-02-08 15:18:00,
2013-02-08 09:23:00,19.6,18.0,29.37,NE,45,4.2,6.5,88,0.00,,,0.00,Rainwise IP-100,2013-02-08 15:23:00,
2013-02-08 09:28:00,19.7,18.0,29.37,NE,45,3.0,5.8,88,0.00,,,0.00,Rainwise IP-100,2013-02-08 15:28:00,
2013-02-08 09:33:00,19.8,18.0,29.37,ENE,67,5.6,7.0,88,0.00,,,0.00,Rainwise IP-100,2013-02-08 15:33:00,
2013-02-08 09:38:00,19.9,18.0,29.37,ENE,67,5.6,7.2,87,0.00,,,0.00,Rainwise IP-100,2013-02-08 15:38:00,
2013-02-08 09:43:00,19.9,18.0,29.36,ENE,67,6.3,8.4,87,0.00,,,0.00,Rainwise IP-100,2013-02-08 15:43:00,
2013-02-08 09:48:00,20.0,18.0,29.37,ENE,67,6.5,9.1,87,0.00,,,0.00,Rainwise IP-100,2013-02-08 15:48:00,
2013-02-08 09:53:00,20.2,18.0,29.36,ENE,67,6.1,8.4,87,0.00,,,0.00,Rainwise IP-100,2013-02-08 15:53:00,
2013-02-08 09:58:00,20.4,16.0,29.37,East,90,4.2,8.6,86,0.00,,,0.00,Rainwise IP-100,2013-02-08 15:58:00,
2013-02-08 10:03:00,20.7,16.0,29.37,ENE,67,6.5,6.8,86,0.00,,,0.00,Rainwise IP-100,2013-02-08 16:03:00,
2013-02-08 10:08:00,20.9,16.0,29.37,ENE,67,4.9,9.1,86,0.00,,,0.00,Rainwise IP-100,2013-02-08 16:08:00,
2013-02-08 10:13:00,21.0,16.0,29.37,ENE,67,3.3,7.0,86,0.00,,,0.00,Rainwise IP-100,2013-02-08 16:13:00,
2013-02-08 10:18:00,21.2,16.0,29.37,ENE,67,4.9,7.5,86,0.00,,,0.00,Rainwise IP-100,2013-02-08 16:18:00,
2013-02-08 10:23:00,21.5,18.0,29.37,East,90,5.8,9.8,85,0.00,,,0.00,Rainwise IP-100,2013-02-08 16:23:00,
2013-02-08 10:28:00,21.6,18.0,29.37,East,90,2.8,9.1,85,0.00,,,0.00,Rainwise IP-100,2013-02-08 16:28:00,
2013-02-08 10:33:00,21.8,18.0,29.38,East,90,6.1,8.9,85,0.00,,,0.00,Rainwise IP-100,2013-02-08 16:33:00,
2013-02-08 10:38:00,21.8,18.0,29.38,East,90,8.4,8.9,85,0.00,,,0.00,Rainwise IP-100,2013-02-08 16:38:00,
2013-02-08 10:43:00,21.8,18.0,29.38,East,90,8.2,11.2,84,0.00,,,0.00,Rainwise IP-100,2013-02-08 16:43:00,
2013-02-08 10:48:00,22.0,18.0,29.37,East,90,6.8,9.1,84,0.00,,,0.00,Rainwise IP-100,2013-02-08 16:48:00,
2013-02-08 10:53:00,22.3,18.0,29.37,East,90,4.2,10.5,84,0.00,,,0.00,Rainwise IP-100,2013-02-08 16:53:00,
2013-02-08 10:58:00,22.5,18.0,29.37,East,90,4.9,11.0,84,0.00,,,0.00,Rainwise IP-100,2013-02-08 16:58:00,
2013-02-08 11:03:00,22.6,18.0,29.37,ESE,112,11.0,13.3,84,0.00,,,0.00,Rainwise IP-100,2013-02-08 17:03:00,
2013-02-08 11:08:00,22.6,18.0,29.37,SE,135,3.3,12.8,84,0.00,,,0.00,Rainwise IP-100,2013-02-08 17:08:00,
2013-02-08 11:13:00,22.6,18.0,29.37,ESE,112,11.9,17.7,84,0.00,,,0.00,Rainwise IP-100,2013-02-08 17:13:00,
2013-02-08 11:18:00,22.5,18.0,29.36,SE,135,13.5,15.2,84,0.00,,,0.00,Rainwise IP-100,2013-02-08 17:18:00,
2013-02-08 11:23:00,22.5,18.0,29.37,SE,135,7.9,16.1,85,0.00,,,0.00,Rainwise IP-100,2013-02-08 17:23:00,
2013-02-08 11:28:00,22.7,18.0,29.37,ESE,112,6.8,12.1,85,0.00,,,0.00,Rainwise IP-100,2013-02-08 17:28:00,
2013-02-08 11:33:00,22.8,18.0,29.37,ESE,112,6.3,12.1,84,0.00,,,0.00,Rainwise IP-100,2013-02-08 17:33:00,
2013-02-08 11:38:00,22.7,18.0,29.36,SE,135,8.6,13.5,84,0.00,,,0.00,Rainwise IP-100,2013-02-08 17:38:00,
2013-02-08 11:43:00,22.7,18.0,29.37,East,90,8.4,11.4,84,0.00,,,0.00,Rainwise IP-100,2013-02-08 17:43:00,
2013-02-08 11:48:00,22.7,18.0,29.37,East,90,11.0,12.1,84,0.00,,,0.00,Rainwise IP-100,2013-02-08 17:48:00,
2013-02-08 11:53:00,22.8,18.0,29.37,ESE,112,3.5,11.7,83,0.00,,,0.00,Rainwise IP-100,2013-02-08 17:53:00,
2013-02-08 11:58:00,22.9,18.0,29.37,ENE,67,4.7,9.3,83,0.00,,,0.00,Rainwise IP-100,2013-02-08 17:58:00,
2013-02-08 12:03:00,22.9,18.0,29.37,SE,135,6.1,9.6,83,0.00,,,0.00,Rainwise IP-100,2013-02-08 18:03:00,
2013-02-08 12:08:00,22.8,18.0,29.37,ESE,112,9.1,11.9,83,0.00,,,0.00,Rainwise IP-100,2013-02-08 18:08:00,
2013-02-08 12:13:00,22.8,18.0,29.37,ESE,112,5.6,12.6,83,0.00,,,0.00,Rainwise IP-100,2013-02-08 18:13:00,
2013-02-08 12:18:00,22.9,18.0,29.37,SE,135,3.7,8.9,83,0.00,,,0.00,Rainwise IP-100,2013-02-08 18:18:00,
2013-02-08 12:23:00,22.9,18.0,29.36,SE,135,11.7,11.9,83,0.00,,,0.00,Rainwise IP-100,2013-02-08 18:23:00,
2013-02-08 12:28:00,22.9,18.0,29.36,SE,135,4.9,13.1,83,0.00,,,0.00,Rainwise IP-100,2013-02-08 18:28:00,
2013-02-08 12:34:00,22.9,18.0,29.37,SSE,157,7.2,9.3,83,0.00,,,0.00,Rainwise IP-100,2013-02-08 18:34:00,
2013-02-08 12:39:00,23.0,18.0,29.36,ESE,112,9.1,10.3,83,0.00,,,0.00,Rainwise IP-100,2013-02-08 18:39:00,
2013-02-08 12:44:00,22.9,18.0,29.36,SE,135,9.1,10.5,83,0.00,,,0.00,Rainwise IP-100,2013-02-08 18:44:00,
2013-02-08 12:49:00,22.8,18.0,29.36,SE,135,5.8,12.4,83,0.00,,,0.00,Rainwise IP-100,2013-02-08 18:49:00,
2013-02-08 12:54:00,22.9,18.0,29.36,SE,135,5.8,9.1,82,0.00,,,0.00,Rainwise IP-100,2013-02-08 18:54:00,
2013-02-08 12:59:00,23.0,18.0,29.36,WSW,247,1.9,8.6,82,0.00,,,0.00,Rainwise IP-100,2013-02-08 18:59:00,
2013-02-08 13:04:00,23.3,18.0,29.36,SE,135,5.4,7.5,82,0.00,,,0.00,Rainwise IP-100,2013-02-08 19:04:00,
2013-02-08 13:09:00,23.5,21.0,29.36,SE,135,1.2,10.5,82,0.00,,,0.00,Rainwise IP-100,2013-02-08 19:09:00,
2013-02-08 13:14:00,23.4,18.0,29.36,SE,135,6.1,10.0,81,0.00,,,0.00,Rainwise IP-100,2013-02-08 19:14:00,
2013-02-08 13:19:00,23.1,18.0,29.35,SE,135,7.7,12.4,81,0.00,,,0.00,Rainwise IP-100,2013-02-08 19:19:00,
2013-02-08 13:24:00,23.0,18.0,29.35,SE,135,9.6,9.6,81,0.00,,,0.00,Rainwise IP-100,2013-02-08 19:24:00,
2013-02-08 13:29:00,23.0,18.0,29.35,SE,135,8.9,11.7,82,0.00,,,0.00,Rainwise IP-100,2013-02-08 19:29:00,
2013-02-08 13:34:00,23.1,18.0,29.34,SE,135,7.0,10.3,82,0.00,,,0.00,Rainwise IP-100,2013-02-08 19:34:00,
2013-02-08 13:39:00,23.3,18.0,29.34,SE,135,12.4,12.4,82,0.00,,,0.00,Rainwise IP-100,2013-02-08 19:39:00,
2013-02-08 13:44:00,23.2,18.0,29.34,SE,135,7.2,16.8,82,0.00,,,0.00,Rainwise IP-100,2013-02-08 19:44:00,
2013-02-08 13:49:00,23.0,18.0,29.33,SE,135,10.0,11.2,82,0.00,,,0.00,Rainwise IP-100,2013-02-08 19:49:00,
2013-02-08 13:54:00,23.1,18.0,29.33,ESE,112,9.6,12.1,82,0.00,,,0.00,Rainwise IP-100,2013-02-08 19:54:00,
2013-02-08 13:59:00,23.0,18.0,29.33,SE,135,8.2,15.9,82,0.00,,,0.00,Rainwise IP-100,2013-02-08 19:59:00,
2013-02-08 14:04:00,23.0,18.0,29.33,ESE,112,14.5,14.5,82,0.00,,,0.00,Rainwise IP-100,2013-02-08 20:04:00,
2013-02-08 14:09:00,23.0,18.0,29.32,SE,135,13.5,14.5,82,0.00,,,0.00,Rainwise IP-100,2013-02-08 20:09:00,
2013-02-08 14:14:00,22.9,18.0,29.33,SE,135,9.1,15.6,82,0.00,,,0.00,Rainwise IP-100,2013-02-08 20:14:00,
2013-02-08 14:19:00,23.0,18.0,29.32,SE,135,14.2,14.2,82,0.00,,,0.00,Rainwise IP-100,2013-02-08 20:19:00,
2013-02-08 14:24:00,23.1,18.0,29.32,SE,135,6.5,15.9,83,0.00,,,0.00,Rainwise IP-100,2013-02-08 20:24:00,
2013-02-08 14:29:00,23.1,18.0,29.32,SE,135,6.3,13.5,82,0.00,,,0.00,Rainwise IP-100,2013-02-08 20:29:00,
2013-02-08 14:34:00,23.4,18.0,29.32,SSE,157,6.3,12.4,82,0.00,,,0.00,Rainwise IP-100,2013-02-08 20:34:00,
2013-02-08 14:39:00,23.5,21.0,29.32,SE,135,10.3,15.2,82,0.00,,,0.00,Rainwise IP-100,2013-02-08 20:39:00,
2013-02-08 14:44:00,23.3,18.0,29.33,SSW,202,1.2,12.8,82,0.00,,,0.00,Rainwise IP-100,2013-02-08 20:44:00,
2013-02-08 14:49:00,23.6,21.0,29.33,SE,135,9.1,9.1,82,0.00,,,0.00,Rainwise IP-100,2013-02-08 20:49:00,
2013-02-08 14:54:00,23.8,21.0,29.32,SE,135,7.5,10.0,82,0.00,,,0.00,Rainwise IP-100,2013-02-08 20:54:00,
2013-02-08 14:59:00,23.5,21.0,29.32,SE,135,10.3,14.2,82,0.00,,,0.00,Rainwise IP-100,2013-02-08 20:59:00,
2013-02-08 15:04:00,23.3,18.0,29.32,ESE,112,11.7,13.3,82,0.00,,,0.00,Rainwise IP-100,2013-02-08 21:04:00,
2013-02-08 15:09:00,23.2,18.0,29.31,SE,135,10.7,15.9,82,0.00,,,0.00,Rainwise IP-100,2013-02-08 21:09:00,
2013-02-08 15:14:00,23.2,18.0,29.33,SE,135,2.8,14.0,82,0.00,,,0.00,Rainwise IP-100,2013-02-08 21:14:00,
2013-02-08 15:19:00,23.4,18.0,29.32,SE,135,11.0,11.0,82,0.00,,,0.00,Rainwise IP-100,2013-02-08 21:19:00,
2013-02-08 15:24:00,23.3,18.0,29.32,SE,135,9.3,13.5,82,0.00,,,0.00,Rainwise IP-100,2013-02-08 21:24:00,
2013-02-08 15:29:00,23.0,18.0,29.32,SE,135,10.7,12.6,82,0.00,,,0.00,Rainwise IP-100,2013-02-08 21:29:00,
2013-02-08 15:34:00,23.2,18.0,29.32,SE,135,6.3,12.6,83,0.00,,,0.00,Rainwise IP-100,2013-02-08 21:34:00,
2013-02-08 15:39:00,23.6,21.0,29.31,SW,225,3.3,7.7,83,0.00,,,0.00,Rainwise IP-100,2013-02-08 21:39:00,
2013-02-08 15:44:00,23.7,21.0,29.32,NNE,22,2.3,7.2,82,0.00,,,0.00,Rainwise IP-100,2013-02-08 21:44:00,
2013-02-08 15:49:00,23.7,21.0,29.32,SE,135,3.5,9.3,82,0.00,,,0.00,Rainwise IP-100,2013-02-08 21:49:00,
2013-02-08 15:54:00,23.6,21.0,29.31,SE,135,5.1,8.4,82,0.00,,,0.00,Rainwise IP-100,2013-02-08 21:54:00,
2013-02-08 15:59:00,23.7,21.0,29.31,SE,135,2.8,9.8,82,0.00,,,0.00,Rainwise IP-100,2013-02-08 21:59:00,
2013-02-08 16:04:00,23.7,21.0,29.31,SE,135,7.5,11.4,82,0.00,,,0.00,Rainwise IP-100,2013-02-08 22:04:00,
2013-02-08 16:09:00,23.4,18.0,29.31,SE,135,10.5,13.1,82,0.00,,,0.00,Rainwise IP-100,2013-02-08 22:09:00,
2013-02-08 16:14:00,23.1,18.0,29.31,SE,135,9.1,14.9,82,0.00,,,0.00,Rainwise IP-100,2013-02-08 22:14:00,
2013-02-08 16:19:00,23.0,18.0,29.31,SSE,157,4.7,9.8,83,0.00,,,0.00,Rainwise IP-100,2013-02-08 22:19:00,
2013-02-08 16:24:00,23.0,18.0,29.31,SW,225,1.2,6.3,83,0.00,,,0.00,Rainwise IP-100,2013-02-08 22:24:00,
2013-02-08 16:29:00,22.9,18.0,29.30,SSE,157,7.0,10.0,82,0.00,,,0.00,Rainwise IP-100,2013-02-08 22:29:00,
2013-02-08 16:34:00,22.4,18.0,29.30,SE,135,7.5,10.0,82,0.00,,,0.00,Rainwise IP-100,2013-02-08 22:34:00,
2013-02-08 16:39:00,21.9,18.0,29.29,SE,135,10.0,11.7,82,0.00,,,0.00,Rainwise IP-100,2013-02-08 22:39:00,
2013-02-08 16:44:00,21.6,18.0,29.29,SE,135,8.9,11.2,83,0.00,,,0.00,Rainwise IP-100,2013-02-08 22:44:00,
2013-02-08 16:49:00,21.2,16.0,29.29,SSE,157,5.6,10.3,83,0.00,,,0.00,Rainwise IP-100,2013-02-08 22:49:00,
2013-02-08 16:54:00,21.1,16.0,29.29,SE,135,7.2,8.9,83,0.00,,,0.00,Rainwise IP-100,2013-02-08 22:54:00,
2013-02-08 16:59:00,21.0,16.0,29.28,SE,135,8.6,8.9,83,0.00,,,0.00,Rainwise IP-100,2013-02-08 22:59:00,
2013-02-08 17:04:00,20.5,16.0,29.28,SE,135,8.2,9.6,84,0.00,,,0.00,Rainwise IP-100,2013-02-08 23:04:00,
2013-02-08 17:09:00,20.3,16.0,29.27,SE,135,7.7,10.5,84,0.00,,,0.00,Rainwise IP-100,2013-02-08 23:09:00,
2013-02-08 17:14:00,20.4,16.0,29.28,SSE,157,8.4,11.7,84,0.00,,,0.00,Rainwise IP-100,2013-02-08 23:14:00,
2013-02-08 17:19:00,20.3,16.0,29.27,SE,135,6.8,11.7,84,0.00,,,0.00,Rainwise IP-100,2013-02-08 23:19:00,
2013-02-08 17:24:00,20.2,16.0,29.28,SSE,157,6.8,9.6,85,0.00,,,0.00,Rainwise IP-100,2013-02-08 23:24:00,
2013-02-08 17:29:00,20.0,16.0,29.27,SE,135,7.5,8.2,85,0.00,,,0.00,Rainwise IP-100,2013-02-08 23:29:00,
2013-02-08 17:34:00,20.0,16.0,29.27,SE,135,8.6,9.1,85,0.00,,,0.00,Rainwise IP-100,2013-02-08 23:34:00,
2013-02-08 17:39:00,20.0,16.0,29.27,SE,135,8.6,10.3,85,0.00,,,0.00,Rainwise IP-100,2013-02-08 23:39:00,
2013-02-08 17:44:00,20.1,16.0,29.27,SE,135,10.5,11.9,86,0.00,,,0.00,Rainwise IP-100,2013-02-08 23:44:00,
2013-02-08 17:49:00,19.9,16.0,29.27,SE,135,8.6,11.9,86,0.00,,,0.00,Rainwise IP-100,2013-02-08 23:49:00,
2013-02-08 17:54:00,19.6,16.0,29.27,SE,135,9.6,10.0,86,0.00,,,0.00,Rainwise IP-100,2013-02-08 23:54:00,
2013-02-08 17:59:00,19.6,16.0,29.27,SE,135,11.9,13.1,86,0.00,,,0.00,Rainwise IP-100,2013-02-08 23:59:00,
2013-02-08 18:04:00,19.9,18.0,29.27,ESE,112,10.3,13.1,87,0.00,,,0.00,Rainwise IP-100,2013-02-09 00:04:00,
2013-02-08 18:09:00,20.0,18.0,29.26,ESE,112,9.6,12.6,87,0.00,,,0.00,Rainwise IP-100,2013-02-09 00:09:00,
2013-02-08 18:14:00,20.0,18.0,29.26,ESE,112,11.9,12.4,87,0.00,,,0.00,Rainwise IP-100,2013-02-09 00:14:00,
2013-02-08 18:19:00,20.0,18.0,29.27,SE,135,12.1,12.6,87,0.00,,,0.00,Rainwise IP-100,2013-02-09 00:19:00,
2013-02-08 18:24:00,20.2,18.0,29.26,SE,135,11.9,14.0,87,0.00,,,0.00,Rainwise IP-100,2013-02-09 00:24:00,
2013-02-08 18:29:00,20.7,18.0,29.26,ESE,112,10.3,14.9,87,0.00,,,0.00,Rainwise IP-100,2013-02-09 00:29:00,
2013-02-08 18:34:00,21.0,18.0,29.26,ESE,112,10.7,15.9,87,0.00,,,0.00,Rainwise IP-100,2013-02-09 00:34:00,
2013-02-08 18:39:00,21.3,18.0,29.26,ESE,112,11.7,17.3,87,0.00,,,0.00,Rainwise IP-100,2013-02-09 00:39:00,
2013-02-08 18:44:00,21.5,18.0,29.26,ESE,112,10.5,14.2,87,0.00,,,0.00,Rainwise IP-100,2013-02-09 00:44:00,
2013-02-08 18:49:00,21.6,18.0,29.26,SE,135,11.4,12.8,87,0.00,,,0.00,Rainwise IP-100,2013-02-09 00:49:00,
2013-02-08 18:54:00,21.7,18.0,29.26,SE,135,11.4,15.2,87,0.00,,,0.00,Rainwise IP-100,2013-02-09 00:54:00,
2013-02-08 18:59:00,21.7,18.0,29.26,SE,135,12.4,14.0,87,0.00,,,0.00,Rainwise IP-100,2013-02-09 00:59:00,
2013-02-08 19:04:00,21.8,18.0,29.26,East,90,9.1,15.2,87,0.00,,,0.00,Rainwise IP-100,2013-02-09 01:04:00,
2013-02-08 19:09:00,21.9,18.0,29.26,SE,135,12.4,15.6,87,0.00,,,0.00,Rainwise IP-100,2013-02-09 01:09:00,
2013-02-08 19:14:00,22.0,18.0,29.26,ESE,112,12.1,15.2,87,0.00,,,0.00,Rainwise IP-100,2013-02-09 01:14:00,
2013-02-08 19:19:00,22.0,18.0,29.26,SE,135,12.1,14.2,87,0.00,,,0.00,Rainwise IP-100,2013-02-09 01:19:00,
2013-02-08 19:24:00,22.0,21.0,29.27,SE,135,10.7,15.6,88,0.00,,,0.00,Rainwise IP-100,2013-02-09 01:24:00,
2013-02-08 19:29:00,22.0,21.0,29.26,SE,135,11.9,15.9,88,0.00,,,0.00,Rainwise IP-100,2013-02-09 01:29:00,
2013-02-08 19:34:00,22.0,21.0,29.26,SE,135,13.8,15.2,88,0.00,,,0.00,Rainwise IP-100,2013-02-09 01:34:00,
2013-02-08 19:39:00,22.0,21.0,29.26,SE,135,12.8,15.4,88,0.00,,,0.00,Rainwise IP-100,2013-02-09 01:39:00,
2013-02-08 19:44:00,22.0,21.0,29.26,SE,135,12.4,15.4,88,0.00,,,0.00,Rainwise IP-100,2013-02-09 01:44:00,
2013-02-08 19:49:00,22.0,21.0,29.26,SE,135,13.8,13.8,88,0.00,,,0.00,Rainwise IP-100,2013-02-09 01:49:00,
2013-02-08 19:54:00,22.0,21.0,29.26,SE,135,13.1,14.5,89,0.00,,,0.00,Rainwise IP-100,2013-02-09 01:54:00,
2013-02-08 19:59:00,22.1,21.0,29.25,SE,135,12.4,15.6,89,0.00,,,0.00,Rainwise IP-100,2013-02-09 01:59:00,
2013-02-08 20:04:00,22.2,21.0,29.25,SE,135,11.4,15.4,89,0.00,,,0.00,Rainwise IP-100,2013-02-09 02:04:00,
2013-02-08 20:09:00,22.2,21.0,29.25,SE,135,14.2,17.7,89,0.00,,,0.00,Rainwise IP-100,2013-02-09 02:09:00,
2013-02-08 20:14:00,22.3,21.0,29.25,SE,135,12.1,16.3,89,0.00,,,0.00,Rainwise IP-100,2013-02-09 02:14:00,
2013-02-08 20:19:00,22.3,21.0,29.25,SE,135,10.5,14.9,89,0.00,,,0.00,Rainwise IP-100,2013-02-09 02:19:00,
2013-02-08 20:24:00,22.3,21.0,29.24,SE,135,12.4,16.3,89,0.00,,,0.00,Rainwise IP-100,2013-02-09 02:24:00,
2013-02-08 20:29:00,22.5,21.0,29.24,SE,135,10.0,16.1,89,0.00,,,0.00,Rainwise IP-100,2013-02-09 02:29:00,
2013-02-08 20:34:00,22.7,21.0,29.24,SE,135,14.2,15.4,89,0.00,,,0.00,Rainwise IP-100,2013-02-09 02:34:00,
2013-02-08 20:39:00,22.7,21.0,29.24,SE,135,15.2,16.3,89,0.00,,,0.00,Rainwise IP-100,2013-02-09 02:39:00,
2013-02-08 20:44:00,22.8,21.0,29.24,SE,135,12.8,15.9,90,0.00,,,0.00,Rainwise IP-100,2013-02-09 02:44:00,
2013-02-08 20:49:00,22.9,21.0,29.24,SE,135,15.6,17.3,90,0.00,,,0.00,Rainwise IP-100,2013-02-09 02:49:00,
2013-02-08 20:54:00,22.9,21.0,29.24,SE,135,6.8,17.5,90,0.00,,,0.00,Rainwise IP-100,2013-02-09 02:54:00,
2013-02-08 20:59:00,23.0,21.0,29.23,SE,135,11.4,14.9,90,0.00,,,0.00,Rainwise IP-100,2013-02-09 02:59:00,
2013-02-08 21:04:00,23.1,21.0,29.23,SE,135,14.2,16.1,90,0.00,,,0.00,Rainwise IP-100,2013-02-09 03:04:00,
2013-02-08 21:09:00,23.1,21.0,29.23,SE,135,12.1,18.7,89,0.00,,,0.00,Rainwise IP-100,2013-02-09 03:09:00,
2013-02-08 21:14:00,23.2,21.0,29.23,SE,135,13.8,16.3,89,0.00,,,0.00,Rainwise IP-100,2013-02-09 03:14:00,
2013-02-08 21:19:00,23.2,21.0,29.23,SSE,157,8.9,15.6,90,0.00,,,0.00,Rainwise IP-100,2013-02-09 03:19:00,
2013-02-08 21:24:00,23.2,21.0,29.24,SSE,157,7.9,14.5,90,0.00,,,0.00,Rainwise IP-100,2013-02-09 03:24:00,
2013-02-08 21:29:00,23.3,21.0,29.24,SE,135,11.4,15.6,90,0.00,,,0.00,Rainwise IP-100,2013-02-09 03:29:00,
2013-02-08 21:34:00,23.4,21.0,29.23,SE,135,11.4,13.3,90,0.00,,,0.00,Rainwise IP-100,2013-02-09 03:34:00,
2013-02-08 21:39:00,23.5,23.0,29.23,SE,135,14.2,16.3,90,0.00,,,0.00,Rainwise IP-100,2013-02-09 03:39:00,
2013-02-08 21:44:00,23.6,23.0,29.23,SE,135,8.4,14.9,90,0.00,,,0.00,Rainwise IP-100,2013-02-09 03:44:00,
2013-02-08 21:49:00,23.6,23.0,29.23,SE,135,9.3,13.1,90,0.00,,,0.00,Rainwise IP-100,2013-02-09 03:49:00,
2013-02-08 21:54:00,23.7,23.0,29.24,SE,135,10.5,12.8,90,0.00,,,0.00,Rainwise IP-100,2013-02-09 03:54:00,
2013-02-08 21:59:00,23.8,23.0,29.24,SE,135,10.5,13.1,90,0.00,,,0.00,Rainwise IP-100,2013-02-09 03:59:00,
2013-02-08 22:04:00,23.9,23.0,29.24,SE,135,9.1,13.5,90,0.00,,,0.00,Rainwise IP-100,2013-02-09 04:04:00,
2013-02-08 22:09:00,23.9,23.0,29.24,SE,135,9.3,11.9,90,0.00,,,0.00,Rainwise IP-100,2013-02-09 04:09:00,
2013-02-08 22:14:00,24.0,23.0,29.23,SE,135,7.9,11.4,90,0.00,,,0.00,Rainwise IP-100,2013-02-09 04:14:00,
2013-02-08 22:19:00,23.9,23.0,29.24,SSE,157,6.3,10.7,90,0.00,,,0.00,Rainwise IP-100,2013-02-09 04:19:00,
2013-02-08 22:24:00,24.0,23.0,29.23,SE,135,7.7,11.2,90,0.00,,,0.00,Rainwise IP-100,2013-02-09 04:24:00,
2013-02-08 22:29:00,24.2,23.0,29.23,SSE,157,8.9,11.0,90,0.00,,,0.00,Rainwise IP-100,2013-02-09 04:29:00,
2013-02-08 22:34:00,24.4,23.0,29.23,SE,135,9.3,12.8,90,0.00,,,0.00,Rainwise IP-100,2013-02-09 04:34:00,
2013-02-08 22:39:00,24.5,24.0,29.23,SE,135,10.0,13.5,90,0.00,,,0.00,Rainwise IP-100,2013-02-09 04:39:00,
2013-02-08 22:44:00,24.5,24.0,29.23,SE,135,6.1,11.2,90,0.00,,,0.00,Rainwise IP-100,2013-02-09 04:44:00,
2013-02-08 22:49:00,24.6,24.0,29.23,SE,135,6.3,10.7,90,0.00,,,0.00,Rainwise IP-100,2013-02-09 04:49:00,
2013-02-08 22:54:00,24.6,24.0,29.23,NE,45,1.6,9.3,90,0.00,,,0.00,Rainwise IP-100,2013-02-09 04:54:00,
2013-02-08 22:59:00,24.7,24.0,29.23,SE,135,5.6,13.1,90,0.00,,,0.00,Rainwise IP-100,2013-02-09 04:59:00,
2013-02-08 23:00:00,24.7,24.0,29.23,South,180,7.2,13.1,90,0.00,,,0.00,Rainwise IP-100,2013-02-09 05:00:00,
2013-02-08 23:05:00,24.7,24.0,29.23,SSE,157,7.9,11.9,90,0.00,,,0.00,Rainwise IP-100,2013-02-09 05:05:00,
2013-02-08 23:10:00,24.8,24.0,29.23,SE,135,6.3,11.2,90,0.00,,,0.00,Rainwise IP-100,2013-02-09 05:10:00,
2013-02-08 23:15:00,24.9,24.0,29.22,ESE,112,2.1,9.6,90,0.00,,,0.00,Rainwise IP-100,2013-02-09 05:15:00,
2013-02-08 23:20:00,24.9,24.0,29.22,SSE,157,8.6,12.4,90,0.00,,,0.00,Rainwise IP-100,2013-02-09 05:20:00,
2013-02-08 23:25:00,25.0,24.0,29.22,South,180,0.0,11.9,90,0.00,,,0.00,Rainwise IP-100,2013-02-09 05:25:00,
2013-02-08 23:30:00,25.0,24.0,29.22,SE,135,7.7,13.1,90,0.00,,,0.00,Rainwise IP-100,2013-02-09 05:30:00,
2013-02-08 23:35:00,25.0,24.0,29.22,South,180,5.8,18.7,90,0.00,,,0.00,Rainwise IP-100,2013-02-09 05:35:00,
2013-02-08 23:40:00,25.0,24.0,29.22,SE,135,8.6,13.1,90,0.00,,,0.00,Rainwise IP-100,2013-02-09 05:40:00,
2013-02-08 23:45:00,25.1,24.0,29.22,SE,135,9.6,17.5,90,0.00,,,0.00,Rainwise IP-100,2013-02-09 05:45:00,
2013-02-08 23:50:00,25.1,24.0,29.22,ESE,112,3.0,14.0,90,0.00,,,0.00,Rainwise IP-100,2013-02-09 05:50:00,
2013-02-08 23:55:00,25.1,24.0,29.21,SSE,157,5.6,12.4,90,0.00,,,0.00,Rainwise IP-100,2013-02-09 05:55:00,